Location: Unspecified
(48.5670°N, 0.0000°E)
Time: 04:58:23
(UTC+00:00)

Transit 4A - Pass Details

Date: 02 September 2019
Orbit: 866 x 978 km, 66.8° (Epoch: 14 October)

Event Time Altitude Azimuth Distance (km) Brightness Sun altitude
Rises 21:27:03 0° 319° (NW) 3,659 12.4 -24.5°
Reaches altitude 10° 21:30:30 10° 338° (NNW) 2,694 11.2 -24.9°
Maximum altitude 21:34:49 19° 21° (NNE) 2,100 10.0 -25.3°
Enters shadow 21:39:01 10° 65° (ENE) 2,631 10.1 -25.8°
